Location: Henry Coe State Park
(37.1875°N, 121.5503°W)
Time: 21:31:24
(UTC-07:00)

Daily predictions for brighter satellites

Satellite Brightness Start Highest point End
(mag) Time Altitude Azimuth Time Altitude Azimuth Time Altitude Azimuth
Cosmos 968 Rocket 3.6 20:52:43 10° S 20:57:43 54° ESE 21:02:48 10° NNE
Cosmos 2026 Rocket 4.1 20:59:52 10° S 21:05:58 85° W 21:12:09 10° N
CZ-4 DEB 3.1 21:04:27 10° S 21:07:38 69° W 21:10:51 10° NNW
Cosmos 1378 3.6 21:04:06 10° SSW 21:07:49 66° W 21:11:33 10° N
Meteor 1-21 Rocket 4.4 21:04:05 10° SSE 21:09:24 49° E 21:14:43 10° NNE
Cosmos 2360 4.4 21:04:23 10° NNW 21:10:07 76° WSW 21:15:49 10° SSE
H-2A R/B 2.5 21:08:56 10° SSE 21:13:18 51° ENE 21:17:42 10° N
Envisat 3.5 21:11:19 10° SE 21:16:05 44° ENE 21:20:55 10° N
ATLAS 5 CENTAUR R/B 4.3 21:14:04 10° WSW 21:18:15 28° NW 21:22:43 10° NNE
Cosmos 1328 Rocket 3.7 21:15:19 10° N 21:19:44 62° E 21:24:07 10° SSE
DELTA 2 R/B (1) 3.9 21:14:21 10° W 21:19:53 69° N 21:25:25 10° E
YAOGAN 6 4.4 21:20:33 11° ESE 21:22:48 18° ENE 21:25:17 10° NNE
Cosmos 371 Rocket 3.3 21:19:24 10° NNW 21:24:14 82° ENE 21:29:02 10° SSE
Cosmos 2228 Rocket 3.2 21:20:48 10° N 21:25:18 86° W 21:29:49 10° S
ERS-1 Rocket 3.0 21:20:23 10° SSE 21:25:25 86° WSW 21:30:29 10° NNW
Cosmos 1437 4.4 21:25:22 14° SE 21:26:51 19° E 21:29:12 10° NE
USA 186 3.9 21:25:15 10° SW 21:26:52 16° W 21:28:30 10° NW
Cosmos 405 4.3 21:24:39 10° NNE 21:27:45 26° ENE 21:29:55 15° SE
SPOT 5 3.3 21:25:09 12° SE 21:28:59 43° ENE 21:33:26 10° N
ALOS 3.9 21:25:18 10° SSW 21:29:29 33° W 21:33:42 10° NNW
S3M 4.0 21:23:33 10° N 21:29:41 84° E 21:35:50 10° S
Cosmos 1743 Rocket 3.8 21:26:21 10° SSW 21:30:49 74° W 21:35:17 10° N
Cosmos 1777 Rocket 4.0 21:26:40 10° S 21:31:53 68° ESE 21:37:07 10° NNE
CZ-2C R/B 0.8 21:33:05 15° S 21:34:18 41° W 21:36:01 10° NNW
Cosmos 1500 Rocket 3.5 21:33:11 10° S 21:37:32 87° E 21:41:57 10° N
ARGOS 4.3 21:37:20 15° ESE 21:40:53 29° ENE 21:45:27 10° N
deb Chang Zheng 4 4.1 21:37:36 10° N 21:41:54 64° WNW 21:46:11 10° SSW
H-2A R/B 4.0 21:41:19 10° E 21:44:17 16° ENE 21:47:23 10° NNE
PSLV R/B 3.4 21:42:34 22° SE 21:44:18 51° ENE 21:47:19 10° N
Cosmos 1441 Rocket 3.6 21:40:52 10° SSW 21:44:37 65° W 21:48:22 10° N
Cosmos 2219 3.7 21:43:51 10° S 21:49:05 38° ESE 21:54:22 10° NE
ATLAS CENTAUR R/B 2.8 21:45:56 10° NW 21:49:57 33° WSW 21:53:26 11° S
Delta 2 Rocket 3.1 21:50:16 10° WSW 21:53:38 45° SSE 21:55:06 26° ESE
SPOT 1/Viking Rocket 4.0 21:52:44 20° SE 21:55:55 45° ENE 22:00:49 10° N
Cosmos 1726 4.0 21:54:06 10° NE 21:56:29 16° ENE 21:57:09 15° E
NOSS 3-1 (C) 3.9 21:51:30 10° S 21:56:42 36° ESE 22:02:19 10° NE
AVUM R/B 2.9 21:55:41 11° SW 21:57:46 59° WNW 22:00:10 10° NNE
Cosmos 2322 4.0 21:53:49 10° NNW 21:59:26 54° ENE 22:02:51 23° SE
FALCON 9 R/B 4.5 21:22:13 10° WSW 22:00:21 74° S 22:08:44 10° E
Cosmos 1680 Rocket 3.8 21:57:14 10° N 22:02:20 51° ENE 22:05:12 25° SE
Cosmos 883 Rocket 4.4 21:57:36 10° N 22:03:51 78° E 22:08:28 19° SSE
Cosmos 1939 Rocket 4.0 22:00:20 10° S 22:04:03 39° W 22:07:45 10° NNW
USA 245 3.1 22:03:51 35° E 22:04:06 36° ENE 22:06:26 10° N
Cosmos 2322 Rocket 3.1 21:59:55 10° NW 22:05:13 44° WSW 22:10:02 12° S
Cosmos 1908 3.3 22:01:42 10° N 22:05:36 77° W 22:08:01 22° S
Cosmos 923 Rocket 4.0 22:00:29 10° NNW 22:05:42 74° ENE 22:08:43 25° SSE
CZ-3A R/B 4.2 21:34:41 10° WSW 22:06:01 39° SSW 22:09:39 23° SE
Cosmos 1515 Rocket 4.5 22:03:02 10° NNW 22:07:18 47° W 22:11:15 11° SSW
Cosmos 304 Rocket 3.9 22:04:19 10° N 22:09:06 61° ENE 22:11:25 29° SE
SL-16 R/B 3.3 22:09:19 10° NW 22:14:35 40° WSW 22:19:09 13° S
Cosmos 1898 Rocket 4.2 22:13:31 28° SE 22:14:51 32° E 22:19:26 10° NE
CZ-4B R/B 3.5 22:09:36 10° NNE 22:14:55 83° ESE 22:19:28 14° SSW
NOAA 11 4.4 22:13:06 27° SE 22:15:57 57° ENE 22:21:17 10° N
Cosmos 2360 Rocket 2.2 22:10:32 10° NNW 22:16:13 77° ENE 22:19:13 29° SSE
Meteor 1-11 4.4 22:15:56 25° SSE 22:19:14 55° E 22:24:51 10° NNE
Cosmos 1633 Rocket 3.7 22:19:19 33° ESE 22:20:11 36° E 22:24:12 10° NNE
Sich 1 3.6 22:19:29 34° ESE 22:20:30 39° E 22:24:37 10° NNE
CZ-4 SHROUD 4.5 22:19:27 23° SSW 22:20:52 36° W 22:23:48 10° NNW
Cosmos 2315 Rocket 3.9 22:17:17 10° N 22:23:31 79° E 22:27:09 27° SSE
Cosmos 1674 4.1 22:20:03 10° SSW 22:23:36 37° W 22:27:13 10° N
Cosmos 2151 3.5 22:23:19 15° SSW 22:26:39 56° W 22:30:48 10° N
Cosmos 1437 Rocket 4.4 22:25:48 10° NNW 22:29:07 29° W 22:31:36 15° SW
Terra 2.7 22:30:16 29° E 22:31:30 34° ENE 22:35:46 10° N
Meteor 1-4 Rocket 3.8 22:29:41 10° NNE 22:32:55 27° ENE 22:32:55 27° ENE
GPS 2-04 Rocket1 4.5 22:29:55 10° WSW 22:33:09 21° SSW 22:33:09 21° SSW
Cosmos 1626 4.4 22:34:25 13° ENE 22:34:25 13° ENE 22:35:22 10° NE
Cosmos 1805 Rocket 3.5 22:31:18 31° S 22:33:27 87° W 22:37:55 10° N
Cosmos 1300 2.6 22:30:53 10° N 22:34:42 66° E 22:35:14 57° SE
Cosmos 1151 Rocket 4.2 22:32:43 10° NNW 22:36:42 37° W 22:39:17 19° SSW
Cosmos 2227 Rocket 3.4 22:39:32 24° E 22:39:32 24° E 22:43:40 10° NE
CZ-4C R/B 3.0 22:43:31 67° E 22:43:34 67° ENE 22:47:01 10° N
CZ-4 R/B 4.1 22:39:01 10° N 22:43:57 71° WNW 22:46:58 23° SSW
OAO 2 Rocket 4.4 22:40:22 10° SW 22:43:37 30° SSW 22:43:37 30° SSW
USA 32 4.2 22:40:32 10° N 22:45:43 56° E 22:47:02 44° SE
Cosmos 2333 Rocket 3.7 22:42:24 10° N 22:47:07 26° ENE 22:49:11 21° E
SWAS 4.4 22:43:11 10° NNW 22:47:31 86° WSW 22:48:17 60° SSE
Cosmos 1707 Rocket 3.6 22:49:39 10° NNW 22:54:00 70° W 22:54:58 51° SSW
Cosmos 1666 Rocket 3.8 22:54:06 41° SSW 22:55:30 67° W 22:59:55 10° N
Nadezhda 1 Rocket 4.4 22:49:42 10° N 22:55:32 46° E 22:57:05 39° ESE
YAOGAN 6 4.4 22:55:02 21° SW 22:56:12 24° W 22:59:13 10° NW
Cosmos 2058 4.0 22:55:20 24° SW 22:57:18 40° W 23:01:11 10° N
Cosmos 1455 3.8 22:54:27 10° NNE 22:56:59 24° ENE 22:56:59 24° ENE
NOSS 3-1 (A) 3.2 22:54:38 20° SSW 22:58:49 83° ESE 23:05:14 10° NE
COSMOS 2428 2.6 22:53:18 10° NNW 22:59:01 83° ENE 23:00:36 50° SSE
Cosmos 1745 Rocket 3.9 23:01:49 43° SSE 23:03:59 74° E 23:10:11 10° N
Cosmos 2298 Rocket 4.3 23:02:45 27° SSW 23:05:41 68° WNW 23:11:00 10° NNE
DELTA 2 R/B (1) 3.4 23:00:54 10° WNW 23:06:26 73° SSW 23:07:27 58° SE
Cosmos 2297 Rocket 3.3 23:07:30 28° E 23:07:30 28° E 23:11:32 10° NE
SL-08 R/B 4.4 23:04:17 38° S 23:06:51 89° W 23:13:09 10° N
Cosmos 1470 Rocket 3.6 23:09:03 62° ENE 23:09:03 62° ENE 23:13:06 10° NNE
Cosmos 1933 Rocket 3.6 23:10:28 63° E 23:10:28 63° E 23:14:45 10° NNE
Cosmos 220 Rocket 3.9 23:15:37 82° ENE 23:15:37 82° ENE 23:19:56 10° NNE
Cosmos 1703 3.5 23:18:15 63° WNW 23:18:15 63° WNW 23:22:00 10° N
Cosmos 1937 Rocket 3.4 23:16:58 55° SSW 23:18:11 86° WNW 23:23:25 10° NNE
Cosmos 2219 Rocket 2.3 23:13:39 10° NNW 23:19:11 60° ENE 23:20:07 52° ESE
IGS 5A 3.5 23:20:24 76° W 23:20:24 76° W 23:24:28 10° NNW
Cosmos 2237 4.4 23:15:00 10° NNW 23:20:38 61° WSW 23:21:52 49° SSW
ARGOS 4.4 23:18:51 25° SW 23:20:58 33° W 23:25:50 10° NNW
ATLAS 2AS CENTAUR R/B 3.1 23:19:59 45° SE 23:21:17 50° ESE 23:28:52 10° NE
H-2A R/B 2.3 23:21:57 51° SSW 23:23:03 64° WSW 23:28:27 10° NNW
Cosmos 1271 Rocket 3.3 23:22:00 10° NNW 23:25:17 54° WNW 23:25:17 54° WNW
Cosmos 2242 Rocket 4.3 23:26:58 10° NNW 23:31:14 46° W 23:31:33 45° WSW
Cosmos 1726 3.8 23:28:40 10° NNW 23:31:50 26° W 23:31:50 26° W
Cosmos 1980 3.9 23:27:25 10° NNW 23:32:58 55° ENE 23:33:40 52° E
Cosmos 990 Rocket 3.8 23:33:28 77° SSW 23:33:51 88° WNW 23:39:02 10° NNE
Cosmos 1386 Rocket 4.3 23:33:46 57° SSW 23:35:06 85° W 23:41:08 10° N
NOSS 0 Rocket 3.8 23:38:21 10° NNW 23:44:32 85° ENE 23:45:22 68° SE
Cosmos 2082 3.6 23:45:27 70° SSW 23:46:11 88° WNW 23:51:56 10° NNE
Cosmos 2237 Rocket 2.2 23:40:44 10° NNW 23:46:26 66° ENE 23:46:53 64° E
ATLAS 3B R/B 3.8 23:40:17 10° NNW 23:46:36 34° NE 23:49:26 25° E
CZ-4B R/B 4.3 23:51:29 13° NE 23:51:29 13° NE 23:52:14 10° NNE
Cosmos 1862 Rocket 4.1 23:47:58 10° NNW 23:51:39 54° NW 23:51:39 54° NW
